User: anonymous   Login
Location: Estes Par
(40.3770°N, 105.5210°W)
Time: 16:56:29
(UTC-07:00)
Language:

Oscar 11 - Orbit

View from above orbital plane
View from above orbital plane
View from above satellite
View from above satellite

Ground track
Ground track

The orbit data is extracted from the following two-line orbital elements,

1 14781U 84021B   19047.64898077 +.00000066 +00000-0 +14215-4 0  9995
2 14781 097.6241 078.0543 0008611 010.9703 349.1697 14.83063833859678
Epoch (UTC): 16 February 2019 15:34:31
Eccentricity: 0.0008611
inclination: 97.6241°
perigee height: 613 km
apogee height: 626 km
right ascension of ascending node: 78.0543°
argument of perigee: 10.9703°
revolutions per day: 14.83063833
mean anomaly at epoch: 349.1697°
orbit number at epoch: 85967

The dashed part of the orbit path shows where the satellite is in the earth's shadow,  

DLR